This demonstration page uses our WeatherBlox Daily Observations layout. Learn more.

Left ArrowRight Arrow

36.17497, -115.13722

Hourly Observations for February 7, 2020

Temp ( °F °C ) Dew Point ( °F °C ) Humidity (%) Winds ( mph kmh ) Pressure ( in mb ) Visibility ( mi km ) Precip ( " mm )
12:53 am 00:53 Clear 45 7.2 26 -3.3 48 48 ESE 6 9 30.07 1018 10 16.0934 0 0
1:53 am 01:53 Clear 46 7.8 26 -3.3 46 46 NE 6 9 30.07 1018 10 16.0934 0 0
2:53 am 02:53 Clear 44 6.7 25 -3.9 47 47 VRB 6 9 30.07 1018 10 16.0934 0 0
3:53 am 03:53 Clear 43 6.1 25 -3.9 49 49 Calm 30.08 1019 10 16.0934 0 0
4:53 am 04:53 Clear 43 6.1 25 -3.9 49 49 ENE 3 6 30.09 1019 10 16.0934 0 0
5:53 am 05:53 Clear 46 7.8 25 -3.9 44 44 ESE 3 6 30.1 1019 10 16.0934 0 0
6:53 am 06:53 Sunny 49 9.4 24 -4.4 38 38 WNW 14 22 30.11 1020 10 16.0934 0 0
7:53 am 07:53 Sunny 47 8.3 26 -3.3 44 44 SSE 6 9 30.15 1021 10 16.0934 0 0
8:53 am 08:53 Sunny 53 11.7 27 -2.8 37 37 ENE 5 7 30.16 1021 10 16.0934 0 0
9:53 am 09:53 Sunny 56 13.3 28 -2.2 34 34 SE 6 9 30.16 1021 10 16.0934 0 0
10:53 am 10:53 Sunny 62 16.7 27 -2.8 26 26 SE 7 11 30.14 1021 10 16.0934 0 0
11:53 am 11:53 Sunny 63 17.2 27 -2.8 26 26 E 7 11 30.12 1020 10 16.0934 0 0
12:53 pm 12:53 Sunny 65 18.3 26 -3.3 23 23 ESE 7 11 30.08 1019 10 16.0934 0 0
1:53 pm 13:53 Sunny 67 19.4 25 -3.9 20 20 SE 7 11 30.06 1018 10 16.0934 0 0
2:53 pm 14:53 Sunny 68 20 25 -3.9 20 20 E 6 9 30.05 1018 10 16.0934 0 0
3:53 pm 15:53 Sunny 68 20 23 -5 18 18 Calm 30.05 1018 10 16.0934 0 0
4:53 pm 16:53 Sunny 66 18.9 25 -3.9 21 21 ESE 6 9 30.05 1018 10 16.0934 0 0
5:53 pm 17:53 Clear 62 16.7 25 -3.9 24 24 Calm 30.07 1018 10 16.0934 0 0
6:53 pm 18:53 Clear 58 14.4 26 -3.3 29 29 N 5 7 30.07 1018 10 16.0934 0 0
7:53 pm 19:53 Clear 56 13.3 26 -3.3 32 32 WNW 6 9 30.08 1019 10 16.0934 0 0
8:53 pm 20:53 Clear 53 11.7 27 -2.8 37 37 NW 3 6 30.09 1019 10 16.0934 0 0
9:53 pm 21:53 Clear 50 10 27 -2.8 41 41 WNW 7 11 30.09 1019 10 16.0934 0 0
10:53 pm 22:53 Clear 49 9.4 27 -2.8 43 43 WNW 3 6 30.09 1019 10 16.0934 0 0
11:53 pm 23:53 Clear 48 8.9 26 -3.3 42 42 NW 7 11 30.08 1019 10 16.0934 0 0

Powered by AerisWeather